Regional Weather Roundup
Issued by NWS Little Rock, AR

Home | Current Version | Previous Version | Graphics & Text | Print | Product List | Glossary On
Versions: 1 2 3 4 5 6 7 8 9 10 11 12 13 14 15 16 17 18 19 20 21 22 23 24 25 26 27
000
ASUS44 KLZK 241705
RWRLZK

WEATHER ROUNDUP FOR ARKANSAS
NATIONAL WEATHER SERVICE LITTLE ROCK AR
1200 PM CDT FRI OCT 24 2014

NOTE: "FAIR" INDICATES FEW OR NO CLOUDS BELOW 12,000 FEET WITH NO
SIGNIFICANT WEATHER AND/OR OBSTRUCTIONS TO VISIBILITY.

ARZ001-003-010-029-241800-
NORTHWEST ARKANSAS

CITY           SKY/WX    TMP DP  RH WIND       PRES   REMARKS
FAYETTEVILLE   MOSUNNY   69  57  65 SW10      30.15F
FORT SMITH     MOSUNNY   67  54  63 N5        30.16F
HARRISON       PTSUNNY   73  57  57 VRB7      30.15F
BENTONVILLE    MOSUNNY   66  55  68 W8        30.15F
ROGERS         MOSUNNY   68  57  68 SW10      30.16S
SILOAM SPGS    SUNNY     70  55  60 SW8       30.16F
HIGHFILL       MOSUNNY   68  57  68 SW13      30.14F
SPRINGDALE     PTSUNNY   70  57  64 SW7       30.17F
$$

ARZ004-005-016-241800-
NORTH CENTRAL ARKANSAS

CITY           SKY/WX    TMP DP  RH WIND       PRES   REMARKS
BATESVILLE     SUNNY     68  54  60 W5        30.15S
FLIPPIN        CLOUDY    63  52  67 E3        30.16F
MTN HOME       CLOUDY    64  54  69 CALM      30.15F
$$

ARZ040-041-241800-
WEST CENTRAL ARKANSAS

CITY           SKY/WX    TMP DP  RH WIND       PRES   REMARKS
MENA           SUNNY     72  55  56 CALM      30.18F
MOUNT IDA      SUNNY     70  55  59 CALM      30.15F
$$

ARZ009-017-025-026-028-241800-
NORTHEAST ARKANSAS

CITY           SKY/WX    TMP DP  RH WIND       PRES   REMARKS
CORNING        FAIR      64  54  68 NW6       30.15F
JONESBORO      SUNNY     65  52  62 VRB5      30.15S
NEWPORT        CLOUDY    65  53  65 VRB3      30.17F
WALNUT RIDGE   MOSUNNY   61  48  63 CALM      30.14F
BLYTHEVILLE    PTSUNNY   69  49  48 VRB5      30.15F
NW BLYTHEVILLE PTSUNNY   66  50  55 W5        30.14
$$

ARZ022-023-033-042-044-241800-
CENTRAL ARKANSAS

CITY           SKY/WX    TMP DP  RH WIND       PRES   REMARKS
LITTLE ROCK    MOSUNNY   71  50  47 SW5       30.17S
N LITTLE ROCK  MOSUNNY   68  54  60 SW6       30.17S
JACKSONVILLE   SUNNY     68  52  57 W6        30.16F
SEARCY         SUNNY     69  53  56 VRB3      30.17F
HOT SPRINGS    SUNNY     68  53  58 S5        30.17F
RUSSELLVILLE   SUNNY     68  53  58 N5        30.16F
$$

ARZ036-241800-
EAST ARKANSAS

CITY           SKY/WX    TMP DP  RH WIND       PRES   REMARKS
WEST MEMPHIS   SUNNY     67  49  52 VRB3      30.14S
$$

ARZ050-053-066-070-073-241800-
SOUTHWEST ARKANSAS

CITY           SKY/WX    TMP DP  RH WIND       PRES   REMARKS
ARKADELPHIA    FAIR      69  55  60 VRB3      30.19S
CAMDEN         SUNNY     72  50  46 CALM      30.17F
TEXARKANA      SUNNY     70  52  52 VRB5      30.18F
EL DORADO      SUNNY     68  51  54 NW6       30.18F
DE QUEEN       SUNNY     67  53  61 CALM      30.17S
$$

ARZ056-057-069-241800-
SOUTHEAST ARKANSAS

CITY           SKY/WX    TMP DP  RH WIND       PRES   REMARKS
PINE BLUFF     SUNNY     67  49  52 VRB3      30.17F
STUTTGART      SUNNY     68  50  52 CALM      30.17F
MONTICELLO     LGT RAIN  67  49  52 CALM      30.16F

$$





USA.gov is the U.S. government's official web portal to all federal, state and local government web resources and services.